When you browse on this site, cookies collect data to enhance your experience and personalize the content and advertising you see.
Visit our Privacy Policy to learn more. By continuing to use the site, you agree to this use of cookies and data.
  • în România
  • Lista ţărilor
  • Pe 7 zile
  • Temperatura apei
  • Meteo pe hartă
  • Widget-uri
  • user-avatar
    Intrare

    Meteo pe oră la Baku

    Astăzi, 26 Februarie, Miercuri

    Timp Temperatura Precipitaţii Vânt Presiune Umiditate
    00:00 +7°C° 0 mm 3 m/s 763 mmHg 59%
    01:00 +6°C° 0 mm 4 m/s 763 mmHg 58%
    02:00 +6°C° 0 mm 5 m/s 764 mmHg 57%
    03:00 +5°C° 0 mm 6 m/s 764 mmHg 57%
    04:00 +5°C° 0 mm 6 m/s 764 mmHg 59%
    05:00 +5°C° 0 mm 5 m/s 765 mmHg 61%
    06:00 +5°C° 0 mm 5 m/s 765 mmHg 63%
    07:00 +6°C° 0 mm 4 m/s 766 mmHg 58%
    08:00 +6°C° 0 mm 4 m/s 766 mmHg 52%
    09:00 +8°C° 0 mm 3 m/s 767 mmHg 48%
    10:00 +8°C° 0 mm 3 m/s 767 mmHg 45%
    11:00 +9°C° 0 mm 2 m/s 767 mmHg 43%
    12:00 +9°C° 0 mm 2 m/s 767 mmHg 40%
    13:00 +8°C° 0 mm 4 m/s 767 mmHg 41%
    14:00 +8°C° 0 mm 5 m/s 766 mmHg 43%
    15:00 +9°C° 0 mm 7 m/s 766 mmHg 44%
    16:00 +8°C° 0 mm 7 m/s 766 mmHg 46%
    17:00 +7°C° 0 mm 8 m/s 766 mmHg 48%
    18:00 +6°C° 0 mm 9 m/s 766 mmHg 49%
    19:00 +6°C° 0 mm 9 m/s 766 mmHg 54%
    20:00 +6°C° 0 mm 9 m/s 767 mmHg 59%
    21:00 +5°C° 0 mm 9 m/s 767 mmHg 63%
    22:00 +5°C° 0 mm 10 m/s 766 mmHg 67%
    23:00 +5°C° 0 mm 10 m/s 766 mmHg 70%

    Mâine, 27 Februarie, Joi

    Timp Temperatura Precipitaţii Vânt Presiune Umiditate
    00:00 +5°C° 0 mm 10 m/s 765 mmHg 73%
    01:00 +4°C° 0 mm 11 m/s 765 mmHg 75%
    02:00 +4°C° 0 mm 11 m/s 765 mmHg 77%
    03:00 +4°C° 0 mm 11 m/s 765 mmHg 78%
    04:00 +4°C° 0 mm 12 m/s 765 mmHg 79%
    05:00 +4°C° 0 mm 12 m/s 764 mmHg 81%
    06:00 +4°C° 0 mm 12 m/s 764 mmHg 82%
    07:00 +4°C° 0 mm 12 m/s 765 mmHg 78%
    08:00 +5°C° 0 mm 12 m/s 765 mmHg 73%
    09:00 +7°C° 0 mm 13 m/s 765 mmHg 69%
    10:00 +7°C° 0 mm 13 m/s 765 mmHg 67%
    11:00 +8°C° 0 mm 13 m/s 764 mmHg 65%
    12:00 +9°C° 0 mm 13 m/s 764 mmHg 62%
    13:00 +9°C° 0 mm 13 m/s 764 mmHg 63%
    14:00 +8°C° 0 mm 13 m/s 763 mmHg 64%
    15:00 +8°C° 0 mm 12 m/s 763 mmHg 65%
    16:00 +8°C° 0 mm 12 m/s 763 mmHg 68%
    17:00 +7°C° 0 mm 12 m/s 762 mmHg 71%
    18:00 +7°C° 0 mm 12 m/s 762 mmHg 74%
    19:00 +7°C° 0 mm 12 m/s 762 mmHg 74%
    20:00 +5°C° 0 mm 12 m/s 762 mmHg 75%
    21:00 +6°C° 0 mm 11 m/s 762 mmHg 76%
    22:00 +6°C° 0 mm 11 m/s 761 mmHg 77%
    23:00 +6°C° 0 mm 11 m/s 760 mmHg 77%

    Poimâine, 28 Februarie, Vineri

    Timp Temperatura Precipitaţii Vânt Presiune Umiditate
    00:00 +6°C° 0 mm 11 m/s 760 mmHg 78%
    01:00 +6°C° 0 mm 11 m/s 759 mmHg 79%
    02:00 +6°C° 0 mm 11 m/s 759 mmHg 79%
    03:00 +6°C° 0 mm 10 m/s 758 mmHg 80%
    04:00 +6°C° 0 mm 10 m/s 758 mmHg 81%
    05:00 +6°C° 0 mm 10 m/s 757 mmHg 82%
    06:00 +6°C° 0 mm 10 m/s 757 mmHg 82%
    07:00 +6°C° 0 mm 10 m/s 757 mmHg 78%
    08:00 +7°C° 0 mm 10 m/s 756 mmHg 74%
    09:00 +8°C° 0 mm 11 m/s 756 mmHg 70%
    10:00 +9°C° 0 mm 11 m/s 756 mmHg 65%
    11:00 +11°C° 0 mm 11 m/s 755 mmHg 60%
    12:00 +12°C° 0 mm 11 m/s 754 mmHg 55%
    13:00 +12°C° 0 mm 11 m/s 754 mmHg 53%
    14:00 +12°C° 0 mm 11 m/s 754 mmHg 51%
    15:00 +13°C° 0 mm 11 m/s 753 mmHg 49%
    16:00 +12°C° 0 mm 11 m/s 753 mmHg 50%
    17:00 +12°C° 0 mm 10 m/s 753 mmHg 51%
    18:00 +11°C° 0 mm 10 m/s 753 mmHg 52%
    19:00 +11°C° 0 mm 8 m/s 754 mmHg 50%
    20:00 +11°C° 0 mm 6 m/s 754 mmHg 48%
    21:00 +12°C° 0 mm 4 m/s 755 mmHg 47%
    22:00 +11°C° 0 mm 7 m/s 756 mmHg 51%
    23:00 +9°C° 0 mm 10 m/s 756 mmHg 55%

    29 Februarie, Sâmbătă

    Timp Temperatura Precipitaţii Vânt Presiune Umiditate
    00:00 +9°C° 0 mm 13 m/s 757 mmHg 60%
    01:00 +9°C° 0 mm 13 m/s 758 mmHg 62%
    02:00 +8°C° 0 mm 14 m/s 758 mmHg 64%
    03:00 +8°C° 0 mm 15 m/s 759 mmHg 67%
    04:00 +8°C° 0 mm 14 m/s 759 mmHg 68%
    05:00 +7°C° 0 mm 13 m/s 760 mmHg 69%
    06:00 +7°C° 0 mm 12 m/s 760 mmHg 70%
    07:00 +7°C° 0 mm 11 m/s 761 mmHg 68%
    08:00 +7°C° 0 mm 10 m/s 761 mmHg 66%
    09:00 +8°C° 0 mm 10 m/s 762 mmHg 64%
    10:00 +8°C° 0 mm 9 m/s 761 mmHg 62%
    11:00 +9°C° 0 mm 8 m/s 761 mmHg 60%
    12:00 +9°C° 0 mm 7 m/s 760 mmHg 59%
    13:00 +9°C° 0 mm 5 m/s 760 mmHg 59%
    14:00 +10°C° 0 mm 4 m/s 759 mmHg 59%
    15:00 +10°C° 0 mm 3 m/s 758 mmHg 60%
    16:00 +9°C° 0 mm 3 m/s 758 mmHg 62%
    17:00 +9°C° 0 mm 3 m/s 758 mmHg 65%
    18:00 +8°C° 0 mm 2 m/s 758 mmHg 68%
    19:00 +8°C° 0 mm 2 m/s 758 mmHg 69%
    20:00 +8°C° 0 mm 2 m/s 758 mmHg 70%
    21:00 +8°C° 0 mm 2 m/s 757 mmHg 71%
    22:00 +8°C° 0 mm 2 m/s 757 mmHg 72%
    23:00 +8°C° 0 mm 2 m/s 756 mmHg 73%

    1 Martie, Duminică

    Timp Temperatura Precipitaţii Vânt Presiune Umiditate
    00:00 +8°C° 0 mm 2 m/s 756 mmHg 73%
    01:00 +8°C° 0 mm 1 m/s 756 mmHg 75%
    02:00 +8°C° 0 mm 1 m/s 755 mmHg 76%
    03:00 +8°C° 0 mm 1 m/s 755 mmHg 77%
    04:00 +7°C° 0 mm 2 m/s 755 mmHg 79%
    05:00 +7°C° 0 mm 3 m/s 755 mmHg 80%
    06:00 +6°C° 0 mm 4 m/s 755 mmHg 82%
    07:00 +5°C° 0 mm 6 m/s 756 mmHg 81%
    08:00 +5°C° 0 mm 8 m/s 756 mmHg 80%
    09:00 +5°C° 0 mm 10 m/s 757 mmHg 79%
    10:00 +4°C° 0.4 mm 11 m/s 757 mmHg 80%
    11:00 +4°C° 0.4 mm 12 m/s 757 mmHg 82%
    12:00 +3°C° 0.4 mm 14 m/s 758 mmHg 83%
    13:00 +4°C° 0.2 mm 14 m/s 758 mmHg 81%
    14:00 +4°C° 0.2 mm 14 m/s 758 mmHg 79%
    15:00 +4°C° 0.2 mm 15 m/s 759 mmHg 77%
    16:00 +4°C° 0 mm 15 m/s 759 mmHg 77%
    17:00 +2°C° 0 mm 15 m/s 760 mmHg 78%
    18:00 +2°C° 0 mm 16 m/s 760 mmHg 79%
    19:00 +2°C° 0 mm 15 m/s 761 mmHg 75%
    20:00 +3°C° 0 mm 14 m/s 762 mmHg 72%
    21:00 +3°C° 0 mm 14 m/s 762 mmHg 69%
    22:00 +3°C° 0 mm 13 m/s 763 mmHg 68%
    23:00 +3°C° 0 mm 12 m/s 763 mmHg 67%

    2 Martie, Luni

    Timp Temperatura Precipitaţii Vânt Presiune Umiditate
    00:00 +3°C° 0 mm 12 m/s 763 mmHg 67%
    01:00 +3°C° 0 mm 11 m/s 763 mmHg 69%
    02:00 +3°C° 0 mm 10 m/s 764 mmHg 72%
    03:00 +3°C° 0 mm 10 m/s 764 mmHg 75%
    04:00 +3°C° 0 mm 9 m/s 764 mmHg 74%
    05:00 +3°C° 0 mm 9 m/s 764 mmHg 74%
    06:00 +3°C° 0 mm 9 m/s 765 mmHg 74%
    07:00 +4°C° 0 mm 8 m/s 765 mmHg 72%
    08:00 +5°C° 0 mm 8 m/s 765 mmHg 70%
    09:00 +5°C° 0 mm 7 m/s 766 mmHg 68%
    10:00 +5°C° 0 mm 7 m/s 766 mmHg 69%
    11:00 +5°C° 0 mm 6 m/s 766 mmHg 70%
    12:00 +7°C° 0 mm 6 m/s 766 mmHg 71%
    13:00 +7°C° 0.1 mm 5 m/s 766 mmHg 68%
    14:00 +7°C° 0.1 mm 5 m/s 765 mmHg 65%
    15:00 +7°C° 0.1 mm 4 m/s 765 mmHg 62%
    16:00 +6°C° 0.1 mm 4 m/s 765 mmHg 63%
    17:00 +7°C° 0.1 mm 3 m/s 766 mmHg 63%
    18:00 +7°C° 0.1 mm 2 m/s 766 mmHg 64%
    19:00 +7°C° 0 mm 2 m/s 766 mmHg 66%
    20:00 +7°C° 0 mm 1 m/s 766 mmHg 69%
    21:00 +7°C° 0 mm 1 m/s 766 mmHg 71%
    22:00 +6°C° 0 mm 2 m/s 766 mmHg 73%
    23:00 +5°C° 0 mm 3 m/s 766 mmHg 75%
    Arată mai mult